Location: Pinhey's Point
(45.4411°N, 75.9539°W)
Time: 15:27:40
(UTC-04:00)

Iridium 65 - Visible Passes

Search period start: 21 September 2017 00:00
Search period end: 01 October 2017 00:00
Orbit: 776 x 779 km, 86.4° (Epoch: 20 September)

Date Brightness Start Highest point End Pass type
(mag) Time Alt. Az. Time Alt. Az. Time Alt. Az.
21 Sep 8.4 00:29:01 10° N 00:29:24 12° N 00:29:24 12° N visible
23 Sep 8.5 01:02:36 10° N 01:02:44 11° N 01:02:44 11° N visible
24 Sep 8.5 00:29:02 10° N 00:29:11 11° N 00:29:11 11° N visible
